sat.trackr.live / text

‹ back to catalog

STARLINK-11294 [DTC]

NORAD 61054 · 2024-164E

PAYLOAD ACTIVE UNKNOWN

§ Identity

Operator
Country
US
Launch date
2024-09-13
Launch site
AFWTR
Launch vehicle
Mass (kg)
RCS (m²)

Purposes: comms

External: N2YO · Heavens-Above · Gunter

§ Orbital elements

Epoch: 2026-09-21T17:45:12.664224Z

Period
91.74 min
Inclination
53.1589°
Eccentricity
0.0000819
Mean motion
15.69709511 rev/d
Perigee alt
359.2 km
Apogee alt
360.3 km
Semi-major
6,737.9 km
B*
1.0594e-5
RAAN
64.6028°
Arg perigee
68.0245°
Mean anomaly
292.0860°
Rev number
11,621

§ Raw data

STARLINK-11294 [DTC]1 61054U 24164E   26264.73972991  .00000695  00000+0  10594-4 0  99922 61054  53.1589  64.6028 0000819  68.0245 292.0860 15.69709511116210

JSON: /api/v1/satellites/61054 · /tle

For live sub-satellite position, see the globe view (requires WebGL).

§ Visibility from observer

Set your observer location to see the next 7 days of passes ≥ 10°. The values pass through the URL so the page stays shareable.

No JS? Fill the form by hand. The geolocation button needs JavaScript.